[[{"header":{"parameterUnit":"m.s-1","parameterCategory":1,"la1":30.2991,"la2":30.254,"lo1":-89.0895,"lo2":-89.0444,"dy":0.0017,"dx":0.0017,"nx":28,"ny":28,"refTime":"2023-09-05T03:00:00:Z","depth":0,"parameterNumber":2,"parameterNumberName":"U-component_of_WINDS"},"data":[0,0,0,0,0,0,0,0,0,0,0,0,0,0,0,0,0,0,0,0,0,0,0,0,0,0,0,0,0,0,0,0,0,0,0,0,0,0,0,0,0,0,0,0,0,0,0,0,0,0,0,0,0,0,0,0,0,0,-4.6261,-4.6262,0,-4.6336,-4.6337,-4.6337,-4.6275,-4.6273,-4.627,-4.6268,-4.6341,-4.6346,-4.635,0,0,0,0,0,0,0,0,0,0,0,0,0,-4.6064,-4.6068,-4.6261,-4.6262,-4.6263,-4.6336,-4.6337,-4.6338,-4.6276,-4.6273,-4.6269,-4.6266,-4.634,-4.6345,-4.635,0,0,0,0,0,0,0,0,0,0,0,0,0,-4.6145,-4.6069,-4.6261,-4.6241,-4.624,-4.6335,-4.6337,-4.6338,-4.6276,-4.6272,-4.6269,-4.6265,-4.6338,-4.6345,-4.6351,-4.6469,0,0,-4.6371,-4.6374,0,0,0,0,0,0,0,0,-4.614,-4.6152,-4.6243,-4.6243,-4.6242,-4.6292,-4.6294,-4.6382,-4.6277,-4.6262,-4.6268,-4.6263,-4.6328,-4.6335,-4.6358,-4.6473,-4.6476,-4.6372,-4.6376,-4.6379,-4.638,0,0,0,0,0,0,0,-4.6135,-4.6149,-4.629,-4.6244,-4.6244,-4.6228,-4.6235,-4.631,-4.6316,-4.6263,-4.6259,-4.6269,-4.6327,-4.6351,-4.6359,-4.6477,-4.6372,-4.6377,-4.6382,-4.6384,-4.6693,-4.6697,0,0,0,0,0,0,-4.6132,-4.6144,-4.6288,-4.6293,-4.618,-4.6235,-4.6243,-4.628,-4.6315,-4.6317,-4.6272,-4.6266,-4.6342,-4.6351,-4.6361,-4.6501,-4.6379,-4.6385,-4.6388,-4.6689,-4.6694,-4.6699,0,0,0,0,0,0,-4.6128,-4.6145,-4.6285,-4.6218,-4.6234,-4.6242,-4.6284,-4.6283,-4.6308,-4.6322,-4.6322,-4.6296,-4.6339,-4.6352,-4.6443,-4.6503,-4.6388,-4.6394,-4.6684,-4.6691,-4.6697,-4.6783,0,0,0,0,0,0,-4.6122,-4.6144,-4.6189,-4.6219,-4.6238,-4.6366,-4.6288,-4.6288,-4.632,-4.6312,-4.6344,-4.6346,-4.6337,-4.6434,-4.645,-4.651,-4.6399,-4.6679,-4.6687,-4.6695,-4.6775,-4.6792,-4.6806,0,0,0,0,0,-4.6115,-4.621,-4.6192,-4.6209,-4.6295,-4.637,-4.6381,-4.6369,-4.6325,-4.637,-4.6379,-4.6345,-4.6495,-4.6444,-4.6461,-4.6524,-4.6675,-4.6685,-4.6694,-4.6768,-4.6788,-4.6806,0,0,0,0,0,0,-4.6185,-4.6213,-4.6193,-4.6301,-4.6334,-4.6359,-4.6416,-4.6392,-4.6437,-4.6428,-4.6411,-4.6419,-4.6515,-4.6529,-4.6472,-4.6641,-4.6577,-4.6591,-4.6628,-4.6647,-4.6663,-4.6656,-4.6404,0,0,0,0,0,-4.6214,-4.6273,-4.6294,-4.6387,-4.6404,-4.6408,-4.644,-4.6429,-4.6462,-4.6475,-4.6491,-4.6524,-4.6578,-4.6614,-4.6664,-4.6778,-4.6783,-4.683,-4.6846,-4.6858,-4.6869,-4.693,-4.6951,-4.6731,-4.6731,-4.673,0,0,-4.6272,-4.6295,-4.6333,-4.6401,-4.6425,-4.6487,-4.642,-4.6487,-4.6532,-4.6485,-4.6572,-4.6585,-4.6621,-4.6723,-4.6769,-4.6738,-4.6932,-4.6871,-4.6881,-4.6885,-4.6942,-4.6963,-4.6981,-4.6737,-4.6736,-4.6735,0,0,-4.6409,-4.6433,-4.6512,-4.6538,-4.6576,-4.6578,-4.6598,-4.6628,-4.6635,-4.6722,-4.6688,-4.6742,-4.6836,-4.6862,-4.6888,-4.7038,-4.7008,-4.7056,-4.7136,-4.7195,-4.7212,-4.7227,-4.728,-4.7299,-4.7067,-4.7067,-4.7067,0,-4.6476,-4.6567,-4.6556,-4.6626,-4.6657,-4.6619,-4.6699,-4.6725,-4.6778,-4.6799,-4.6764,-4.6882,-4.6903,-4.7011,-4.7048,-4.7071,-4.7092,-4.705,-4.7211,-4.7226,-4.724,-4.729,-4.7309,-4.7073,-4.7072,-4.7071,-4.7071,0,-4.6647,-4.6711,-4.6771,-4.6824,-4.6862,-4.6937,-4.6936,-4.6976,-4.6963,-4.6968,-4.7058,-4.7083,-4.7138,-4.7163,-4.715,-4.727,-4.7249,-4.7213,-4.7149,-4.7267,-4.7313,-4.7332,-4.708,-4.7078,-4.7077,-4.7075,0,0,-4.6827,-4.6875,-4.6896,-4.692,-4.696,-4.7009,-4.7083,-4.7138,-4.7172,-4.721,-4.7271,-4.7353,-4.732,-4.7349,-4.7339,-4.7392,-4.7507,-4.7349,-4.7349,-4.7376,-4.764,-4.7665,-4.7688,-4.7489,-4.7493,-4.7496,-4.7636,0,-4.6965,-4.7093,-4.7086,-4.7206,-4.7264,-4.7231,-4.7295,-4.7326,-4.7334,-4.7385,-4.7394,-4.7451,-4.7404,-4.7422,-4.7472,-4.7483,-4.756,-4.7473,-4.7544,-4.7546,-4.7534,-4.7712,-4.7739,-4.787,-4.7655,-4.7658,-4.766,0,-4.7141,-4.7186,-4.7313,-4.7345,-4.7369,-4.7427,-4.7477,-4.7526,-4.7562,-4.7564,-4.7598,-4.758,-4.7654,-4.7591,-4.7692,-4.7633,-4.7662,-4.7672,-4.7677,-4.7681,-4.7608,-4.7719,-4.7912,-4.7931,-4.7688,-4.7686,-4.7684,0,-4.7258,-4.7351,-4.7438,-4.746,-4.75,-4.7541,-4.7559,-4.7591,-4.7625,-4.7669,-4.7691,-4.7743,-4.7771,-4.7812,-4.7808,-4.7762,-4.7911,-4.7847,-4.7914,-4.7914,-4.7944,-4.7942,-4.8143,-4.7967,-4.7967,-4.7967,-4.7966,0,-4.7411,-4.7489,-4.7491,-4.7545,-4.7631,-4.7623,-4.7709,-4.7723,-4.7752,-4.7807,-4.7782,-4.7834,-4.7827,-4.788,-4.7878,-4.7962,-4.7975,-4.7978,-4.7976,-4.7979,-4.7979,-4.7996,-4.7986,-4.7972,-4.7971,-4.797,-4.7969,0,-4.7554,-4.7559,-4.7652,-4.7683,-4.7693,-4.7755,-4.7782,-4.7832,-4.7839,-4.791,-4.7926,-4.7936,-4.7997,-4.7999,-4.8068,-4.8067,-4.8169,-4.8158,-4.8157,-4.8154,-4.822,-4.8213,-4.8438,-4.8466,-4.8274,-4.8276,-4.8277,0,-4.765,-4.7709,-4.7748,-4.7783,-4.7805,-4.7863,-4.7897,-4.7892,-4.7929,-4.7975,-4.802,-4.8079,-4.8125,-4.8225,-4.8238,-4.8291,-4.828,-4.8355,-4.8288,-4.8289,-4.8279,-4.8275,-4.828,-4.8367,-4.8369,-4.8371,-4.8373,0,-4.7819,-4.7819,-4.7871,-4.7924,-4.7966,-4.8008,-4.8046,-4.8076,-4.8076,-4.8119,-4.8181,-4.8218,-4.829,-4.8348,-4.84,-4.8419,-4.8396,-4.8394,-4.8412,-4.8415,-4.8411,-4.8413,-4.8191,-4.8388,-4.8387,-4.8386,-4.8385,-4.8384,-4.7941,-4.7992,-4.8027,-4.8085,-4.8114,-4.8151,-4.82,-4.8214,-4.8266,-4.8324,-4.8319,-4.8388,-4.8423,-4.849,-4.8514,-4.8568,-4.8542,-4.8568,-4.8574,-4.858,-4.8587,-4.8405,-4.8577,-4.8577,-4.8577,-4.8576,-4.8576,0,-4.8107,-4.8129,-4.8183,-4.8237,-4.8284,-4.826,-4.8301,-4.8341,-4.8403,-4.8437,-4.8484,-4.8556,-4.8614,-4.8633,-4.8688,-4.8728,-4.8719,-4.8742,-4.8738,-4.8743,-4.8608,-4.8586,-4.8749,-4.8749,-4.8749,-4.8749,-4.8749,-4.8749,-4.8199,-4.8284,-4.8289,-4.8388,-4.8409,-4.8477,-4.8503,-4.8537,-4.8564,-4.8646,-4.8694,-4.8707,-4.8735,-4.8793,-4.8844,-4.8848,-4.8869,-4.8897,-4.8897,-4.877,-4.8752,-4.8735,-4.8715,-4.8902,-4.8902,-4.9027,-4.9028,-4.9029]},{"header":{"parameterUnit":"m.s-1","parameterCategory":1,"la1":30.2991,"la2":30.254,"lo1":-89.0895,"lo2":-89.0444,"dy":0.0017,"dx":0.0017,"nx":28,"ny":28,"refTime":"2023-09-05T03:00:00:Z","depth":0,"parameterNumber":3,"parameterNumberName":"V-component_of_WINDS"},"data":[0,0,0,0,0,0,0,0,0,0,0,0,0,0,0,0,0,0,0,0,0,0,0,0,0,0,0,0,0,0,0,0,0,0,0,0,0,0,0,0,0,0,0,0,0,0,0,0,0,0,0,0,0,0,0,0,0,0,3.438,3.4381,0,3.4435,3.4436,3.4437,3.4467,3.4467,3.4467,3.4467,3.4519,3.452,3.4522,0,0,0,0,0,0,0,0,0,0,0,0,0,3.4298,3.43,3.438,3.4381,3.4382,3.4435,3.4436,3.4437,3.4467,3.4467,3.4467,3.4467,3.4519,3.452,3.4522,0,0,0,0,0,0,0,0,0,0,0,0,0,3.4341,3.43,3.438,3.4403,3.4406,3.4435,3.4436,3.4437,3.4467,3.4467,3.4467,3.4467,3.4518,3.452,3.4522,3.4531,0,0,3.4528,3.4529,0,0,0,0,0,0,0,0,3.4339,3.4344,3.4399,3.4402,3.4405,3.4445,3.4426,3.4468,3.4467,3.4444,3.4467,3.4467,3.4494,3.4498,3.4508,3.4533,3.4535,3.4528,3.4529,3.453,3.4531,0,0,0,0,0,0,0,3.4336,3.4342,3.4402,3.44,3.4403,3.441,3.4416,3.4434,3.4467,3.4446,3.4448,3.4454,3.4495,3.4506,3.4509,3.4536,3.4528,3.453,3.4531,3.4532,3.4573,3.4573,0,0,0,0,0,0,3.433,3.4339,3.44,3.4404,3.4372,3.4411,3.4418,3.4432,3.4467,3.4473,3.4454,3.4456,3.4502,3.4507,3.4511,3.4524,3.453,3.4532,3.4533,3.4573,3.4573,3.4573,0,0,0,0,0,0,3.4328,3.4335,3.4398,3.4372,3.4381,3.4413,3.4427,3.4433,3.4443,3.4474,3.4479,3.4459,3.4503,3.4508,3.4526,3.4527,3.4533,3.4534,3.4573,3.4573,3.4573,3.4551,0,0,0,0,0,0,3.4325,3.4334,3.4338,3.4372,3.4382,3.4413,3.4427,3.4434,3.4447,3.4449,3.4479,3.4485,3.4503,3.4523,3.4528,3.4529,3.4536,3.4573,3.4573,3.4573,3.4551,3.455,3.4548,0,0,0,0,0,3.4322,3.4329,3.4339,3.4346,3.4389,3.4413,3.4419,3.4441,3.4447,3.4451,3.4471,3.4484,3.4526,3.4525,3.453,3.4532,3.4573,3.4573,3.4573,3.4552,3.455,3.4548,0,0,0,0,0,0,3.4292,3.4334,3.4345,3.4363,3.4385,3.4418,3.4424,3.4438,3.4458,3.4459,3.4485,3.4491,3.4507,3.4521,3.4519,3.4543,3.4551,3.4552,3.4533,3.4531,3.453,3.4526,3.4537,0,0,0,0,0,3.4288,3.4306,3.4341,3.4353,3.4364,3.4392,3.4404,3.4419,3.4442,3.4451,3.4472,3.4493,3.4511,3.4522,3.454,3.4554,3.4561,3.4558,3.4556,3.4555,3.4555,3.4564,3.4564,3.4572,3.4572,3.4572,0,0,3.4279,3.4304,3.4313,3.4348,3.4367,3.4383,3.4399,3.4416,3.4429,3.4453,3.4472,3.4488,3.4513,3.4529,3.4537,3.4541,3.4555,3.4555,3.4553,3.4555,3.4564,3.4563,3.4562,3.4572,3.4572,3.4572,0,0,3.4271,3.4292,3.4305,3.4324,3.4353,3.4372,3.4375,3.4407,3.4419,3.4439,3.4458,3.4473,3.4503,3.452,3.4533,3.4533,3.4545,3.4538,3.453,3.4538,3.4537,3.4537,3.4537,3.4537,3.4538,3.4538,3.4538,0,3.4256,3.4284,3.431,3.4326,3.4341,3.4365,3.4378,3.4395,3.4427,3.4436,3.4441,3.4481,3.4499,3.452,3.452,3.453,3.4534,3.4534,3.4536,3.4535,3.4535,3.4536,3.4536,3.4537,3.4537,3.4537,3.4537,0,3.4264,3.4282,3.4289,3.4322,3.4338,3.4352,3.4379,3.4392,3.4406,3.4424,3.4444,3.4467,3.4491,3.4497,3.451,3.452,3.4522,3.4531,3.4539,3.4533,3.4534,3.4534,3.4536,3.4536,3.4536,3.4536,0,0,3.4237,3.4286,3.4288,3.4304,3.4338,3.4352,3.4368,3.4393,3.4403,3.4424,3.4438,3.4464,3.4473,3.4487,3.4503,3.451,3.4509,3.4519,3.4519,3.4516,3.4521,3.4515,3.4514,3.4518,3.4518,3.4519,3.452,0,3.4235,3.4266,3.429,3.4311,3.4329,3.4353,3.4367,3.4388,3.4406,3.4423,3.4442,3.446,3.447,3.4479,3.4488,3.4508,3.4511,3.4508,3.453,3.4531,3.4523,3.4515,3.4507,3.4507,3.452,3.452,3.452,0,3.4235,3.4258,3.4282,3.4315,3.4324,3.4335,3.4361,3.4377,3.4402,3.4414,3.4431,3.4448,3.4465,3.4472,3.4495,3.4493,3.4504,3.4515,3.4515,3.4518,3.4525,3.4517,3.4507,3.4507,3.4521,3.4521,3.4521,0,3.4214,3.4251,3.427,3.4282,3.4322,3.433,3.4346,3.4372,3.4386,3.4407,3.4416,3.4439,3.4451,3.4468,3.449,3.4493,3.4512,3.452,3.4522,3.4521,3.4524,3.4524,3.4516,3.4531,3.4531,3.4531,3.4531,0,3.4208,3.4222,3.4261,3.4273,3.4289,3.4316,3.433,3.4349,3.4372,3.4387,3.4408,3.4422,3.4451,3.4468,3.4485,3.4502,3.4507,3.4517,3.4522,3.4515,3.4514,3.4522,3.4523,3.4531,3.4531,3.4531,3.4531,0,3.4187,3.4214,3.4237,3.4273,3.4282,3.4292,3.4323,3.4334,3.4354,3.4373,3.4379,3.4409,3.443,3.4454,3.4482,3.4494,3.451,3.4516,3.4502,3.4504,3.4505,3.4504,3.4502,3.4503,3.4517,3.4517,3.4517,0,3.4181,3.4193,3.4231,3.4243,3.426,3.4279,3.4294,3.4322,3.4336,3.4366,3.4374,3.4397,3.4417,3.445,3.4473,3.4495,3.4502,3.45,3.4506,3.4499,3.4503,3.4502,3.4503,3.4498,3.4498,3.4498,3.4498,0,3.4168,3.4182,3.4203,3.4229,3.4247,3.4268,3.429,3.4299,3.4331,3.4346,3.4369,3.4384,3.4415,3.4437,3.4462,3.4478,3.4493,3.4496,3.4498,3.4491,3.4482,3.4487,3.4498,3.4496,3.4496,3.4496,3.4496,3.4496,3.4155,3.4166,3.4195,3.4219,3.4239,3.4259,3.4273,3.4295,3.4315,3.4343,3.4358,3.438,3.4406,3.4442,3.4457,3.4474,3.4479,3.4482,3.4482,3.4482,3.4481,3.448,3.4479,3.4479,3.4479,3.4479,3.4479,0,3.4143,3.4164,3.4185,3.4216,3.4235,3.4249,3.4275,3.4289,3.4309,3.4332,3.4352,3.4378,3.4401,3.4427,3.4451,3.446,3.4467,3.4465,3.4464,3.4468,3.4475,3.4471,3.4458,3.4458,3.4458,3.4458,3.4458,3.4458,3.4139,3.416,3.4177,3.4207,3.4227,3.4251,3.4264,3.4283,3.4303,3.4332,3.4351,3.4369,3.4393,3.4419,3.444,3.4447,3.4455,3.4451,3.446,3.4465,3.4467,3.4469,3.4466,3.4452,3.4452,3.4452,3.4452,3.4452]}]]